Content
SEND FEEDBACK

Daily
Averages
Monthly
Summary
United States of America

CANDO, NORTH DAKOTA


Home > North America > United States > North Dakota
Elevation: 1490 feet     Latitude: 48 29N     Longitude: 099 12W

WEATHER
 
SELECT A DAY
Number of Records: 88,499;   Date Range: 11/18/10 - 8/21/14
 
SHARE

PRINT THIS DATA

[ ← Previous Day ]
WEATHER ALMANAC - FEBRUARY 13, 2013
[ Next Day → ]
[ °C ]   °F
Weather ElementAverageHighLow
Temperature22.1 °F26.6 °F (11:15 am)17.6 °F (2:15 am)
Dewpoint20.8 °F24.8 °F (2:35 pm)15.8 °F (2:15 am)
Humidity95 %100 % (1:55 am)86 % (11:15 am)
Barometer29.66 in29.78 in (11:55 pm)29.58 in (9:55 am)
Wind Speed6.5 mph11.5 mph (1:15 am)
Weather ElementAverage
Visibility8.9 mi
Wind DirectionSSE (167.9 °)

Weather ElementTotal
Precipitation0.13 in
Heating Degree Days42.9 (Base 65)
Averaged from 71 records on February 13, 2013
WEATHER CONDITIONS BREAKOUT
WIND DIRECTION BREAKOUT
WEATHER BY HOUR - FEBRUARY 13, 2013
[ °C ]   °F
Local TimeTemperatureDewpointHumidityBarometerVisibilityWind DirectionWind SpeedGust SpeedPrecipitationEventsConditions
12:35 AM23.0 °F21.2 °F93 %29.69 in10.0 miWNW (290°)8.1 mphClear
12:55 AM23.0 °F21.2 °F93 %29.69 in10.0 miWNW (290°)9.2 mphClear
1:15 AM21.2 °F19.4 °F93 %29.69 in10.0 miWNW (290°)11.5 mphClear
1:35 AM19.4 °F17.6 °F93 %29.69 in10.0 miNW (310°)5.8 mphClear
1:55 AM19.4 °F19.4 °F100 %29.68 in10.0 miWNW (300°)6.9 mphScattered Clouds
2:15 AM17.6 °F15.8 °F93 %29.68 in10.0 miWNW (290°)9.2 mphOvercast
2:35 AM17.6 °F17.6 °F100 %29.67 in10.0 miWNW (290°)9.2 mphOvercast
2:55 AM17.6 °F17.6 °F100 %29.67 in10.0 miWest (280°)10.4 mphOvercast
3:15 AM17.6 °F15.8 °F93 %29.66 in10.0 miWest (260°)6.9 mphOvercast
3:35 AM17.6 °F17.6 °F100 %29.65 in10.0 miWSW (250°)6.9 mphOvercast
3:55 AM17.6 °F15.8 °F93 %29.65 in10.0 miWest (260°)6.9 mphOvercast
4:15 AM17.6 °F17.6 °F100 %29.64 in10.0 miWest (280°)8.1 mphOvercast
4:35 AM19.4 °F19.4 °F100 %29.64 in10.0 miWest (280°)9.2 mphOvercast
4:55 AM19.4 °F19.4 °F100 %29.64 in10.0 miWNW (290°)9.2 mphOvercast
5:15 AM19.4 °F19.4 °F100 %29.64 in10.0 miWest (260°)8.1 mphOvercast
5:35 AM19.4 °F19.4 °F100 %29.63 in10.0 miWest (280°)5.8 mphOvercast
5:55 AM19.4 °F19.4 °F100 %29.62 in10.0 miWest (260°)6.9 mphOvercast
6:15 AM21.2 °F19.4 °F93 %29.62 in10.0 miWest (260°)6.9 mphOvercast
6:35 AM19.4 °F19.4 °F100 %29.61 in10.0 miWest (280°)6.9 mphOvercast
6:55 AM19.4 °F19.4 °F100 %29.61 in10.0 miWest (270°)4.6 mphOvercast
7:15 AM19.4 °F19.4 °F100 %29.60 in10.0 miWest (260°)4.6 mphOvercast
7:35 AM17.6 °F17.6 °F100 %29.60 in10.0 miWest (260°)5.8 mphOvercast
7:55 AM19.4 °F19.4 °F100 %29.60 in10.0 miWest (270°)6.9 mphOvercast
8:15 AM19.4 °F19.4 °F100 %29.60 in10.0 miWest (260°)5.8 mphOvercast
8:35 AM19.4 °F19.4 °F100 %29.60 in10.0 miWSW (250°)4.6 mphOvercast
8:55 AM19.4 °F19.4 °F100 %29.59 in10.0 miWest (270°)3.5 mphOvercast
9:15 AM21.2 °F19.4 °F93 %29.59 in10.0 miCalmOvercast
9:35 AM23.0 °F21.2 °F93 %29.59 in10.0 miENE (60°)3.5 mphOvercast
9:55 AM23.0 °F21.2 °F93 %29.58 in10.0 miCalmOvercast
10:15 AM23.0 °F21.2 °F93 %29.58 in10.0 miCalmOvercast
10:35 AM24.8 °F23.0 °F93 %29.59 in10.0 miNNW (340°)4.6 mphOvercast
10:55 AM24.8 °F23.0 °F93 %29.59 in10.0 miCalmOvercast
11:15 AM26.6 °F23.0 °F86 %29.59 in10.0 miCalmOvercast
11:35 AM26.6 °F23.0 °F86 %29.59 in10.0 miCalmMostly Cloudy
11:55 AM26.6 °F23.0 °F86 %29.60 in10.0 miCalmMostly Cloudy
12:15 PM26.6 °F23.0 °F86 %29.60 in10.0 miNorth (10°)4.6 mphOvercast
12:35 PM26.6 °F23.0 °F86 %29.60 in10.0 miNorth (350°)5.8 mphMostly Cloudy
12:55 PM26.6 °F23.0 °F86 %29.60 in3.0 miNorth (360°)9.2 mphSnowLight Snow
1:15 PM24.8 °F23.0 °F93 %29.60 in7.0 miNorth (10°)10.4 mphSnowLight Snow
1:35 PM24.8 °F23.0 °F93 %29.60 in10.0 miNorth (10°)10.4 mphMostly Cloudy
1:55 PM24.8 °F23.0 °F93 %29.60 in10.0 miNNE (20°)10.4 mphMostly Cloudy
2:15 PM24.8 °F23.0 °F93 %29.61 in6.0 miNorth (10°)10.4 mphMostly Cloudy
2:35 PM24.8 °F24.8 °F100 %29.61 in10.0 miNorth (10°)10.4 mphOvercast
2:55 PM24.8 °F24.8 °F100 %29.61 in1.5 miNorth (10°)9.2 mph0.01 inSnowLight Snow
3:15 PM24.8 °F24.8 °F100 %29.62 in2.0 miNNE (20°)10.4 mphSnowLight Snow
3:35 PM24.8 °F24.8 °F100 %29.63 in9.0 miNNE (20°)9.2 mphOvercast
3:55 PM24.8 °F24.8 °F100 %29.63 in10.0 miNNE (20°)8.1 mphOvercast
4:15 PM24.8 °F23.0 °F93 %29.64 in10.0 miNorth (10°)9.2 mphMostly Cloudy
4:35 PM24.8 °F23.0 °F93 %29.65 in10.0 miNNE (20°)9.2 mphOvercast
4:55 PM24.8 °F23.0 °F93 %29.66 in10.0 miNNE (20°)8.1 mphOvercast
5:15 PM24.8 °F23.0 °F93 %29.66 in10.0 miNNE (20°)10.4 mphOvercast
5:35 PM24.8 °F23.0 °F93 %29.67 in10.0 miNorth (360°)8.1 mphOvercast
5:55 PM24.8 °F23.0 °F93 %29.69 in10.0 miNorth (360°)8.1 mphOvercast
6:15 PM24.8 °F23.0 °F93 %29.70 in10.0 miNorth (350°)6.9 mphOvercast
6:35 PM24.8 °F23.0 °F93 %29.71 in10.0 miNorth (360°)6.9 mphOvercast
6:55 PM24.8 °F23.0 °F93 %29.71 in10.0 miNorth (360°)9.2 mphOvercast
7:15 PM24.8 °F23.0 °F93 %29.72 in10.0 miNorth (360°)9.2 mphOvercast
7:35 PM23.0 °F23.0 °F100 %29.72 in10.0 miNorth (360°)5.8 mphOvercast
7:55 PM23.0 °F21.2 °F93 %29.73 in10.0 miNNE (20°)4.6 mphOvercast
8:15 PM23.0 °F21.2 °F93 %29.73 in10.0 miNNE (20°)5.8 mphOvercast
8:35 PM23.0 °F19.4 °F86 %29.74 in10.0 miNorth (350°)5.8 mphOvercast
8:55 PM21.2 °F19.4 °F93 %29.75 in9.0 miNorth (350°)4.6 mphOvercast
9:15 PM21.2 °F19.4 °F93 %29.75 in9.0 miNorth (10°)3.5 mphMostly Cloudy
9:35 PM21.2 °F19.4 °F93 %29.75 in6.0 miNNE (20°)4.6 mphSnowLight Snow
9:55 PM21.2 °F19.4 °F93 %29.76 in5.0 miNNE (20°)5.8 mph0.01 inSnowLight Snow
10:15 PM21.2 °F19.4 °F93 %29.76 in3.0 miNorth (10°)5.8 mphSnowLight Snow
10:35 PM19.4 °F19.4 °F100 %29.76 in3.0 miNNE (30°)5.8 mph0.01 inSnowLight Snow
10:55 PM19.4 °F19.4 °F100 %29.77 in5.0 miNNE (20°)4.6 mph0.02 inSnowLight Snow
11:15 PM21.2 °F19.4 °F93 %29.77 in5.0 miNNE (30°)6.9 mphSnowLight Snow
11:35 PM21.2 °F21.2 °F100 %29.77 in3.0 miNE (40°)5.8 mph0.02 inSnowLight Snow
11:55 PM21.2 °F19.4 °F93 %29.78 in2.0 miNNE (30°)4.6 mph0.06 inSnowLight Snow
Hourly data recorded from K9D7, located miles away from Cando, North Dakota







STORIES FROM OUR PARTNERS